User: anonymous   Login
Location: Holcomb Observatory
(44.4922°N, 73.1654°W)
Time: 07:13:51
(UTC-05:00)
Language:

Cosmos 1727 Rocket - Orbit

View from above orbital plane
View from above orbital plane
View from above satellite
View from above satellite

Ground track
Ground track

The orbit data is extracted from the following two-line orbital elements,

1 16511U 86008B   14328.19969150  .00000032  00000-0  16913-4 0  6226
2 16511 082.9449 194.0205 0024512 020.3305 098.8704 13.75776650447570
Epoch (UTC): 24 November 2014 04:47:33
Eccentricity: 0.0024512
inclination: 82.9449°
perigee height: 961 km
apogee height: 997 km
right ascension of ascending node: 194.0205°
argument of perigee: 20.3305°
revolutions per day: 13.75776650
mean anomaly at epoch: 98.8704°
orbit number at epoch: 44757

The dashed part of the orbit path shows where the satellite is in the earth's shadow,  

DLR